Theta_e
325 318 314 312 310 309 305 300 294 292 285 284 281 283 288 291 290 291 292 292 293 295 295 298 295 296 296 293 293 298 299 291 290 287 290 295 305 318 322 327 338 344 345 346 343 342 343 346 350 351 351 351 350 350 349 349 351 351 351 350 350 350 350 349 349 349 349 349 349 349 349 348 347 347 346 346 346 345 343 342 340 340 340 341 341 342 342 341 341 341 342 343 342 342 342 342 342
317 313 311 309 310 308 304 294 288 282 283 283 285 284 287 289 291 289 290 291 292 300 301 303 304 305 305 305 304 301 299 307 296 301 303 305 315 319 328 332 343 343 346 346 344 341 343 344 349 351 351 350 350 350 349 349 350 350 350 349 349 349 349 349 348 348 348 349 349 349 348 347 347 346 346 346 346 344 343 342 340 339 339 340 341 341 341 340 340 340 341 342 341 341 341 341 342
314 314 311 311 309 304 299 296 294 279 282 283 283 285 287 291 290 290 289 292 297 300 296 296 296 296 298 299 298 295 295 307 311 307 312 314 318 320 324 335 341 345 346 347 345 343 342 342 345 350 351 350 350 349 349 349 349 349 349 349 349 349 348 349 348 348 348 349 348 348 348 348 347 346 345 345 344 343 342 341 339 338 338 339 340 340 340 340 340 340 340 341 341 339 339 340 341
311 314 310 307 307 298 292 285 283 284 282 278 281 287 289 290 290 291 293 295 298 294 293 297 299 300 298 296 298 301 299 305 312 311 310 314 316 319 325 334 343 346 348 348 346 343 343 342 344 350 351 350 350 350 349 349 348 348 349 349 348 348 348 348 348 348 348 348 348 348 347 347 346 345 345 344 343 342 341 340 339 338 337 338 338 339 339 339 339 338 339 339 339 338 337 339 341
312 315 309 305 301 300 289 285 282 281 283 281 284 285 287 288 291 289 292 291 290 291 293 295 298 300 299 299 298 296 300 303 303 310 310 311 315 320 327 331 346 345 346 348 347 344 342 341 343 347 350 350 350 350 349 348 348 348 350 349 348 347 347 347 347 347 347 347 348 347 346 346 345 344 344 344 342 341 340 339 338 337 337 337 337 338 338 338 338 338 338 338 338 337 338 340 341
308 308 308 307 302 299 292 288 287 286 284 285 285 289 287 289 291 290 291 291 291 291 292 295 297 297 302 306 305 303 308 302 308 311 311 316 322 322 326 330 346 344 347 348 348 345 342 341 342 343 348 350 350 350 349 349 348 348 348 348 347 347 346 347 347 346 347 347 347 346 346 345 345 344 344 343 342 341 340 339 338 337 335 335 336 337 337 337 337 337 337 337 337 338 339 340 340
311 301 301 302 296 296 290 282 283 281 291 287 289 288 290 289 291 290 292 293 294 297 294 299 299 298 297 301 299 309 312 314 313 315 316 321 322 323 325 337 344 344 347 347 348 344 340 341 342 342 347 349 350 350 349 349 349 348 348 348 347 347 346 346 346 346 347 346 347 346 346 345 344 344 344 342 341 340 340 338 336 335 334 334 334 335 337 337 336 336 336 336 337 338 340 340 340
307 307 299 294 289 287 284 283 285 282 289 287 289 289 289 290 288 290 290 293 293 296 300 296 291 294 295 301 295 307 303 312 316 313 316 320 321 323 327 341 343 343 346 347 347 344 342 341 343 344 347 348 349 349 349 349 349 348 349 348 347 347 346 346 346 346 346 346 346 346 345 345 344 344 343 342 341 340 340 337 335 333 332 333 333 333 335 337 336 335 335 335 336 337 339 339 340
302 301 296 293 288 285 282 285 287 286 286 287 288 289 300 289 288 289 291 290 293 292 298 297 293 295 294 299 298 302 301 305 301 307 320 323 324 325 330 340 341 341 344 346 346 346 343 338 341 345 344 347 346 348 349 349 349 348 348 348 347 346 346 346 346 346 346 346 346 346 345 344 344 343 343 342 341 340 339 337 334 332 331 331 330 331 334 336 336 335 335 335 336 337 337 338 337
298 299 293 291 286 286 280 285 286 288 289 289 289 293 290 289 289 291 291 292 293 293 295 293 292 295 295 298 296 299 304 301 302 318 321 327 328 328 331 336 339 341 343 345 346 346 344 343 338 342 342 346 346 346 348 349 349 348 348 347 347 347 346 346 345 346 346 346 346 345 345 343 343 343 343 342 340 339 338 336 333 330 330 330 330 331 334 335 335 335 334 334 334 335 334 333 332
295 293 293 287 282 282 283 284 281 285 290 287 288 288 290 288 290 289 290 293 290 294 295 294 297 294 296 295 294 299 298 299 317 318 318 327 325 329 334 336 337 342 342 344 345 346 345 344 339 338 340 343 342 344 348 348 348 348 348 347 347 347 347 346 346 346 345 345 345 345 343 343 342 342 341 340 339 338 337 335 331 329 329 329 329 331 333 333 334 334 333 333 333 332 331 329 327
295 290 288 281 283 284 282 285 286 287 287 288 294 292 290 290 290 292 292 293 292 292 293 295 297 294 294 291 294 297 297 307 303 305 315 328 328 329 333 334 337 340 342 344 345 345 345 344 342 338 334 338 339 341 342 344 347 348 348 348 347 347 347 346 346 346 345 345 345 344 343 342 341 341 341 340 338 337 337 334 330 328 327 327 329 330 330 330 331 331 331 330 330 329 327 324 322
291 289 287 287 286 285 284 284 287 292 284 286 291 293 289 291 292 290 290 290 290 291 294 292 294 295 292 292 293 294 301 304 302 312 323 325 325 327 326 325 327 329 330 336 339 341 344 344 343 342 337 334 335 337 338 340 343 346 347 347 347 346 346 346 346 346 345 345 344 343 343 342 341 341 340 339 338 337 336 333 330 328 327 326 327 328 327 327 328 328 328 328 328 327 325 322 320
291 290 288 289 282 283 283 285 283 287 286 289 289 290 291 292 292 290 291 292 292 291 294 294 295 293 293 292 293 294 293 300 304 321 318 318 319 321 321 322 323 322 322 325 325 328 331 331 334 337 342 338 340 335 333 336 339 342 344 343 343 344 345 345 344 344 344 344 343 340 339 338 338 339 339 339 337 336 335 332 330 329 328 325 324 324 324 324 325 326 326 325 325 324 322 321 321
295 289 286 282 282 285 283 286 288 284 287 287 294 292 292 293 289 289 291 290 292 292 295 296 295 295 292 293 289 293 295 301 309 316 314 316 317 318 319 319 320 320 320 320 321 323 323 324 327 329 334 341 340 340 338 336 333 335 338 339 339 342 342 341 340 341 339 339 339 336 335 333 333 334 334 335 335 333 332 330 331 330 329 326 324 323 322 322 323 324 324 324 324 323 322 321 320
292 290 284 285 285 284 286 285 282 285 288 288 292 289 292 293 291 294 292 293 293 295 294 297 295 293 294 293 294 291 296 309 314 309 313 315 317 317 317 317 317 318 319 317 320 319 321 321 321 323 325 330 340 340 338 336 332 330 334 336 337 338 338 338 338 337 332 331 330 330 328 330 328 328 326 329 330 332 329 327 330 330 328 327 324 322 321 321 321 321 321 320 320 320 320 319 318
292 287 285 281 286 285 287 286 286 287 286 288 289 291 292 293 293 294 294 293 295 295 293 294 296 296 293 292 295 297 301 312 312 309 312 314 315 316 316 317 317 316 316 316 316 317 317 318 318 321 321 324 325 336 340 339 335 328 329 327 330 333 333 333 334 328 324 323 324 323 325 332 329 329 329 328 324 328 322 324 327 328 328 327 326 323 322 322 322 321 321 320 319 316 313 313 314
290 285 282 284 281 284 287 288 288 287 289 290 291 290 291 291 293 296 295 294 292 293 294 293 295 298 296 296 297 299 304 317 310 312 309 311 312 314 314 313 314 313 311 314 314 315 315 315 316 319 320 321 324 327 339 340 336 334 336 334 333 330 329 327 330 334 330 329 323 328 332 331 332 331 330 328 327 326 325 322 323 327 328 329 327 323 323 324 323 323 323 322 319 316 310 302 303
286 282 280 284 283 287 289 287 289 290 293 290 290 288 291 292 292 295 293 291 291 294 294 292 294 295 300 300 299 306 312 314 308 308 307 309 313 317 314 308 312 312 313 312 312 313 313 313 317 318 319 320 322 321 332 339 337 337 338 336 332 328 330 330 332 330 333 331 332 333 331 332 333 332 331 329 328 322 324 322 324 327 328 328 326 325 325 325 324 324 323 320 317 313 305 303 302
288 286 288 281 285 287 287 287 290 290 290 290 290 291 291 292 293 293 294 290 290 292 291 293 293 295 297 299 300 306 313 311 304 305 305 304 306 311 311 309 308 310 310 311 311 313 312 312 314 318 318 319 321 320 322 337 338 338 338 337 335 332 331 333 333 333 331 331 333 334 333 332 332 332 326 323 324 327 324 320 321 320 321 320 318 318 321 322 322 321 319 315 312 307 305 304 302
289 285 281 290 286 292 293 287 289 288 290 290 289 290 292 292 291 293 289 292 291 290 290 295 295 294 297 297 297 300 308 307 302 302 302 301 301 302 306 307 309 308 308 308 309 310 311 313 313 316 318 319 319 320 318 326 337 338 339 338 336 334 331 333 333 333 332 332 333 333 333 332 332 331 329 329 329 327 326 324 323 321 318 315 315 312 311 311 311 309 309 309 307 306 305 304 302
286 289 287 288 286 292 293 288 288 288 288 289 288 292 292 292 293 290 291 291 290 292 293 293 293 295 298 299 298 298 305 306 303 301 302 302 302 302 302 303 305 304 306 307 307 307 310 311 312 315 317 318 318 320 318 319 327 337 338 338 336 334 333 333 332 332 331 332 333 333 333 332 332 330 329 329 328 328 326 325 323 320 317 315 314 312 311 310 309 309 308 307 306 306 305 304 303
292 290 287 286 286 292 291 290 289 288 289 289 289 292 292 292 292 288 290 293 291 290 291 290 292 294 299 299 298 300 302 304 302 302 301 300 300 299 300 300 300 304 302 303 304 306 308 311 313 313 315 317 319 320 321 324 326 333 337 338 336 334 334 333 332 332 331 332 332 332 332 332 331 330 329 329 327 327 325 325 323 320 317 316 314 313 311 310 309 309 308 307 306 305 304 303 301
286 291 288 292 287 292 290 292 287 287 290 290 289 292 293 290 293 289 289 292 289 289 291 292 291 296 299 299 298 301 302 303 301 300 298 301 301 300 299 300 299 299 301 302 303 304 306 308 310 312 314 316 319 319 327 327 327 331 335 334 335 331 331 329 329 330 330 331 331 332 332 333 331 330 329 328 327 326 325 324 323 321 319 317 315 314 311 309 309 309 307 306 305 303 302 301 299
291 291 291 291 289 288 289 288 287 287 288 289 290 293 292 289 290 290 290 293 292 293 294 295 296 297 296 298 298 297 298 297 299 297 298 298 297 299 298 297 298 301 302 301 303 305 306 307 307 309 315 316 318 325 327 326 326 326 329 329 328 326 328 327 327 327 327 326 327 327 327 332 331 330 329 328 327 325 325 324 324 323 321 319 317 315 312 310 309 308 307 305 304 301 300 299 298
291 293 290 290 292 289 289 292 290 288 290 290 293 290 288 289 290 292 295 290 291 293 294 295 296 296 296 297 297 297 297 298 296 297 298 296 297 298 298 298 298 302 301 303 303 305 307 310 311 314 317 318 321 326 325 324 323 323 323 323 323 321 323 323 323 322 323 323 322 323 325 327 326 327 328 327 325 324 323 322 322 322 322 320 318 314 312 311 310 308 307 304 302 301 299 299 298
290 291 290 292 291 290 291 293 290 289 292 290 292 290 291 290 291 292 290 291 292 294 293 293 295 296 295 296 296 295 297 297 298 296 296 296 296 296 297 297 298 299 300 301 303 306 310 310 311 316 318 319 322 324 323 321 320 320 319 319 320 319 318 319 319 319 319 319 320 321 321 322 323 324 324 324 323 322 320 320 319 319 317 316 315 312 311 310 309 308 306 304 302 301 300 299 298
290 291 291 291 288 290 289 290 290 291 295 288 292 290 288 290 290 293 294 292 293 293 293 293 293 294 295 294 295 295 295 295 295 296 298 296 298 296 296 297 298 298 299 299 304 308 309 311 312 315 316 317 319 319 319 319 318 317 317 317 315 315 315 314 315 315 314 315 317 318 320 320 320 320 320 319 319 317 317 317 317 315 313 312 310 309 308 308 307 306 305 304 302 301 299 298 297
291 292 294 290 287 293 291 292 290 291 293 289 290 291 289 288 289 293 289 292 292 292 292 292 292 292 292 292 294 294 296 295 294 295 297 297 296 295 298 299 299 299 301 304 305 308 309 310 311 312 314 316 317 317 316 316 316 315 314 314 313 313 312 312 311 311 312 313 314 316 317 317 318 317 317 317 315 315 314 313 312 311 310 309 309 308 307 307 304 304 303 302 301 300 298 296 296
292 290 289 290 285 287 290 290 289 291 293 287 291 286 285 288 294 291 291 291 291 292 291 291 291 290 290 290 293 294 294 294 295 296 295 295 295 296 297 299 298 298 301 306 308 307 309 310 311 312 312 312 312 313 313 312 312 311 310 310 311 311 311 310 309 309 309 310 312 313 314 315 315 316 315 314 314 313 312 311 310 309 308 308 307 307 306 306 304 303 302 301 300 297 295 294 293
292 290 285 284 285 283 288 289 289 291 291 289 292 286 288 288 288 288 288 291 292 292 292 291 291 291 290 291 292 294 295 294 296 296 295 294 293 294 297 298 299 299 302 305 306 307 308 309 310 310 310 310 310 310 309 309 309 309 308 308 308 308 309 309 309 309 309 309 310 311 312 312 314 314 314 313 311 310 308 307 306 305 305 305 305 305 305 304 304 303 301 299 298 296 295 294 292
285 287 283 278 284 282 285 289 289 291 291 289 292 286 290 293 293 289 289 290 290 292 291 291 290 291 291 291 292 294 295 294 294 294 295 294 293 295 296 298 302 303 304 305 306 307 307 308 309 308 308 307 307 307 307 307 307 306 306 306 306 307 307 307 308 307 308 308 308 308 309 310 311 312 312 311 308 307 305 303 302 302 302 302 302 302 302 301 301 300 300 299 296 294 293 292 292
280 285 281 284 283 281 288 289 287 289 290 290 291 289 285 289 288 287 289 290 289 289 290 290 290 290 291 292 293 293 294 294 293 294 294 294 294 295 297 300 303 305 305 305 306 306 306 307 308 307 306 305 305 305 305 305 305 304 304 305 304 304 305 305 306 306 306 306 306 305 306 307 308 309 309 308 306 304 302 300 300 299 300 301 300 299 299 300 299 298 298 298 296 294 292 291 290
282 282 284 279 284 283 284 286 289 287 290 289 288 287 289 290 288 288 290 290 289 290 291 291 291 291 291 292 292 293 293 294 295 295 294 293 295 296 299 301 304 305 305 306 306 306 305 305 305 305 305 305 304 303 303 303 302 302 301 300 300 300 300 301 300 301 301 302 303 302 302 303 303 304 304 303 302 300 299 297 297 298 297 297 296 296 296 298 299 298 296 296 295 293 291 289 288
280 285 284 285 283 283 285 285 290 289 288 288 287 286 289 292 293 289 289 290 289 291 292 292 291 291 291 291 292 293 293 294 296 296 294 293 295 297 300 302 304 305 305 306 305 305 304 304 304 303 303 303 302 301 301 301 300 300 300 299 298 297 297 299 297 297 297 298 299 299 299 300 300 300 300 300 298 297 296 295 294 294 294 294 294 295 295 296 296 296 294 292 291 291 290 288 287
282 284 282 281 285 283 284 286 286 289 287 286 285 288 290 291 292 294 289 289 289 291 290 290 290 290 291 291 292 292 293 294 295 294 292 293 295 298 300 302 304 304 304 305 304 304 303 303 302 302 302 301 300 300 301 300 299 299 298 299 297 295 295 296 298 296 295 296 296 297 297 297 297 297 297 297 296 295 294 294 293 294 294 295 295 294 294 294 294 293 292 290 288 288 287 286 286
285 283 282 283 283 284 285 285 286 286 288 286 289 288 288 290 291 293 290 287 288 289 290 291 291 292 291 291 292 293 293 294 292 293 292 293 295 298 301 303 303 303 303 304 303 303 303 302 302 301 301 300 299 299 300 299 298 297 298 297 296 297 294 294 293 293 294 294 295 295 295 296 296 296 295 295 294 294 293 292 292 292 293 294 293 293 294 293 292 291 290 289 288 286 285 284 284
288 284 285 285 283 286 287 289 289 287 288 283 283 284 287 289 291 292 289 286 289 290 290 291 292 292 292 292 292 292 293 290 290 291 291 292 295 298 300 302 302 301 302 303 303 303 303 302 302 301 300 300 300 300 300 299 299 298 296 294 295 295 295 294 293 292 293 294 293 293 294 294 294 294 294 293 293 292 291 291 291 291 291 291 291 291 291 291 290 289 289 286 284 285 282 281 282
285 287 284 284 284 284 287 287 286 287 287 286 285 287 289 289 290 291 290 290 291 292 292 294 294 293 292 292 293 292 291 291 291 292 291 293 294 298 300 301 302 302 302 302 303 303 302 302 301 300 301 301 300 299 298 295 296 295 294 293 292 290 292 293 292 293 292 291 292 292 292 293 293 292 293 293 292 291 291 290 289 290 290 290 289 288 287 287 288 288 289 288 284 282 282 283 281
285 283 285 285 283 285 284 284 286 288 288 284 282 285 288 288 290 290 292 292 291 291 292 293 294 293 293 294 294 293 292 292 290 291 291 292 294 298 300 301 301 301 301 301 302 302 302 301 301 301 301 300 297 296 295 294 292 292 292 292 292 291 289 290 290 291 291 291 289 290 291 291 291 291 291 291 291 290 290 289 289 289 288 288 289 287 285 284 285 285 286 287 287 283 279 281 282
283 286 284 284 285 285 287 285 285 285 286 284 285 287 289 289 290 291 292 287 289 293 292 291 292 292 294 293 291 293 293 292 291 291 291 292 294 297 300 301 302 301 300 300 301 302 302 301 301 301 300 298 295 294 293 293 292 290 290 290 290 290 290 290 290 289 289 289 289 288 288 289 289 289 289 289 289 288 288 288 286 286 286 285 286 285 284 283 283 283 285 285 285 285 279 279 281
282 284 288 288 287 287 284 284 287 284 281 283 284 281 279 280 287 289 289 286 289 289 290 292 294 294 292 291 292 291 292 293 293 292 292 292 294 297 300 301 301 301 300 300 301 302 301 301 301 299 298 295 294 293 293 292 291 290 289 290 289 289 289 290 290 288 288 288 286 286 287 288 288 288 288 288 288 287 286 286 285 284 284 283 284 283 282 282 282 282 281 283 282 282 282 279 279
284 284 286 289 288 286 286 285 286 279 279 284 283 283 280 282 286 287 285 285 289 291 289 292 293 293 291 292 292 291 291 291 291 292 292 292 294 297 300 300 301 300 301 300 300 301 300 299 299 298 296 294 293 293 294 293 292 294 294 293 293 292 291 287 287 287 286 285 286 285 286 286 286 286 286 286 285 285 284 284 283 283 283 283 283 283 282 282 281 281 281 282 282 283 282 280 279
282 283 283 286 286 286 285 284 286 282 280 283 282 280 282 285 287 289 291 290 290 290 293 294 295 294 292 291 291 290 291 291 292 292 292 293 294 297 299 301 301 301 300 298 298 298 298 297 297 296 295 294 293 293 294 294 293 295 295 293 292 291 289 285 285 285 286 285 285 284 285 285 285 285 284 283 283 283 283 283 283 283 283 282 283 282 282 281 281 281 281 281 281 280 280 281 278
283 286 283 284 286 284 284 285 282 282 281 281 282 284 283 281 282 285 286 287 287 291 293 295 296 294 291 291 291 290 291 291 292 291 291 292 294 297 300 300 301 300 298 297 297 296 297 296 296 295 294 293 293 293 293 294 295 296 294 291 287 286 286 285 285 286 285 285 284 284 284 283 282 282 282 282 281 282 283 282 282 282 282 282 282 281 281 281 281 281 280 281 280 280 280 280 279
286 284 285 283 282 281 280 281 284 280 278 280 282 283 278 285 282 286 283 286 287 291 294 296 296 292 290 290 290 290 289 289 291 291 291 292 294 297 300 301 300 299 297 296 296 296 296 296 294 293 292 292 292 293 293 293 293 293 292 289 286 285 285 284 284 283 283 284 283 282 281 281 281 281 281 280 281 281 281 282 281 281 281 281 282 281 280 280 280 280 280 280 280 279 278 279 279
287 285 287 284 281 280 278 279 278 280 276 283 283 284 284 282 282 286 287 288 290 293 292 293 293 288 288 288 288 288 288 288 289 290 290 291 293 297 300 300 299 297 295 294 294 295 295 295 294 293 293 292 292 292 292 291 290 291 290 288 286 285 285 284 283 282 282 282 281 280 280 281 280 280 280 280 280 280 280 281 281 281 281 282 281 280 280 280 280 280 280 280 280 280 280 280 280
287 286 282 286 285 278 278 273 275 274 276 281 280 284 285 280 279 282 287 286 285 290 291 292 291 289 288 287 287 287 287 288 289 289 289 291 293 296 299 299 297 295 293 293 294 294 294 294 293 292 292 292 292 291 291 289 289 289 288 287 286 285 285 284 283 282 282 281 281 280 280 280 280 280 280 280 280 279 280 280 281 280 280 280 280 279 279 279 279 279 279 279 279 279 279 279 278
286 286 287 281 274 272 273 272 275 273 278 279 278 282 281 283 288 283 285 290 290 288 291 293 292 292 291 287 286 286 287 287 289 289 289 291 293 296 298 298 296 294 293 293 293 294 294 293 293 292 291 291 290 290 289 288 288 288 288 287 286 286 285 285 284 283 282 281 281 280 280 280 279 280 279 280 279 279 280 280 279 279 279 279 279 279 279 279 279 279 279 278 278 278 278 278 278
285 287 283 279 273 273 269 267 264 270 276 278 281 282 282 281 286 292 294 294 294 291 290 291 292 292 292 289 286 286 286 288 289 289 289 290 293 296 298 298 296 295 293 293 292 292 293 293 292 292 290 290 289 288 288 287 287 287 288 287 286 286 284 284 283 282 282 282 281 281 281 281 280 280 280 280 279 279 279 279 279 279 279 279 279 279 278 278 278 278 278 278 277 277 277 277 277
288 286 289 285 278 272 269 267 275 278 275 276 278 277 277 278 284 285 291 289 286 286 288 287 287 288 287 283 284 284 285 286 288 289 290 290 292 295 297 298 296 295 294 293 292 291 291 292 292 291 290 289 288 288 288 287 287 287 287 286 286 285 284 284 283 283 282 281 281 281 280 280 280 280 280 279 279 279 279 279 279 279 279 279 279 279 279 278 278 278 278 277 277 277 277 277 276
285 284 284 280 283 279 279 272 270 270 270 272 273 280 280 284 285 286 285 285 287 287 288 286 290 288 285 285 286 286 287 287 288 289 289 290 292 294 296 297 296 295 294 293 292 291 291 291 291 291 289 288 288 288 287 287 286 286 285 285 285 284 284 283 283 282 281 281 281 281 280 280 279 279 279 279 279 279 279 279 279 278 278 278 278 278 278 278 278 277 277 277 276 278 276 276 276
284 286 284 285 283 282 272 273 272 272 270 278 273 280 283 284 289 291 293 290 289 287 287 287 289 287 284 287 286 285 287 287 288 289 289 289 290 293 296 296 296 295 294 293 292 292 292 292 291 290 289 288 288 287 287 286 285 284 284 284 283 282 282 281 282 281 281 280 280 280 280 279 279 279 279 279 278 278 278 279 278 278 278 278 277 277 277 277 277 277 277 276 275 275 276 275 275
285 281 285 285 285 284 282 277 271 271 274 276 276 280 282 280 284 282 285 286 290 289 291 291 287 284 285 289 287 286 287 287 288 288 288 289 290 292 294 295 295 295 295 294 293 292 293 292 290 290 288 286 287 287 285 284 283 283 282 282 282 282 282 281 281 281 280 280 279 279 279 279 279 279 280 279 278 278 278 279 278 277 277 277 277 277 277 277 277 276 276 276 275 276 275 275 275
286 283 287 288 281 279 280 275 275 269 271 274 275 276 280 283 286 285 286 285 287 289 290 288 291 290 289 287 286 285 285 286 287 287 288 288 289 291 293 294 294 294 294 293 293 293 292 292 291 290 288 287 287 286 284 284 283 283 283 282 281 281 281 281 280 280 280 280 279 279 279 279 279 279 279 278 278 278 278 277 277 277 277 276 276 276 276 276 276 276 276 275 275 275 275 275 275
287 288 287 285 283 277 277 282 274 276 271 268 276 273 284 284 284 285 290 289 288 289 286 289 291 291 288 286 286 286 286 286 287 287 288 288 289 290 291 292 293 293 292 292 292 292 291 291 290 289 288 287 286 285 284 283 282 282 282 281 281 281 280 280 280 280 279 279 279 279 279 278 278 279 278 278 278 277 277 277 277 277 276 276 276 276 276 276 276 276 275 275 275 275 275 274 274
284 284 283 285 280 283 281 280 277 277 267 268 272 279 285 284 286 286 290 289 289 289 290 290 290 289 287 286 286 286 286 287 287 287 288 288 288 289 290 291 291 291 291 291 291 290 291 290 289 288 287 285 285 284 283 282 282 282 281 281 280 280 280 280 279 279 279 279 279 279 278 278 278 278 278 278 277 277 277 277 277 277 276 276 276 275 276 276 276 275 275 275 275 275 274 274 274
289 289 286 288 283 281 278 279 280 273 276 278 269 280 287 286 284 289 288 289 289 288 287 289 289 287 287 285 285 286 286 287 287 287 288 287 287 288 288 288 287 288 289 290 290 290 289 289 289 287 287 285 284 283 283 282 281 282 281 280 280 280 280 279 279 279 279 279 278 278 278 278 278 277 278 277 277 277 277 277 276 276 276 276 275 275 275 276 276 275 275 274 274 274 274 273 273
Wind_Speed
6 5 3 1 3 2 3 7 1 2 4 0 1 1 1 1 1 1 1 3 0 1 1 1 0 1 0 2 4 4 2 3 2 3 1 1 1 2 2 4 3 4 7 4 5 4 3 3 5 8 9 9 9 8 9 11 11 11 10 11 11 11 12 12 12 13 13 14 14 14 14 15 15 15 14 14 15 15 16 15 15 15 16 16 16 16 16 16 16 16 16 16 17 16 16 16 15
3 4 3 2 1 2 0 2 4 3 6 2 1 1 1 2 0 2 1 2 2 1 1 5 6 7 7 9 6 2 2 1 4 1 1 3 1 0 2 3 5 9 6 4 4 5 3 3 6 7 10 10 9 8 9 10 10 10 10 10 11 11 11 11 12 12 13 13 13 13 14 15 15 15 14 14 15 15 15 15 15 15 16 16 16 16 16 16 16 16 16 17 17 17 16 16 15
3 5 2 4 3 5 2 4 1 1 4 0 2 4 2 1 1 2 3 3 4 5 1 1 3 3 2 2 2 2 0 0 0 1 1 2 2 3 5 1 4 7 9 4 4 4 2 3 7 8 10 10 9 9 8 9 9 10 10 10 10 10 11 11 11 12 12 12 13 13 14 15 16 16 15 14 14 14 15 15 15 15 15 16 16 16 16 16 16 16 16 16 17 16 16 16 16
2 4 2 3 0 3 1 4 4 7 3 4 1 2 1 1 3 3 2 4 5 1 1 2 3 1 1 5 0 0 1 1 1 0 0 2 1 3 4 1 4 5 4 5 4 4 4 2 4 9 9 10 10 9 8 10 9 9 9 10 10 10 10 11 11 11 11 12 12 13 14 16 16 15 14 14 14 14 14 14 15 15 16 16 16 17 17 17 16 16 16 17 17 16 16 16 16
4 2 3 4 3 1 4 1 4 3 2 5 3 3 3 4 5 3 2 3 4 2 1 1 2 2 0 3 0 1 1 2 1 2 1 2 1 2 4 3 4 6 6 6 6 4 4 8 5 6 9 10 10 9 8 8 9 9 7 9 10 9 9 10 10 11 11 12 12 13 15 16 16 14 14 14 14 14 14 15 15 15 15 16 16 17 17 17 17 17 17 17 17 17 16 16 17
5 2 4 2 1 2 5 2 3 1 3 5 1 3 3 6 5 5 2 1 1 2 1 0 1 3 1 1 2 0 1 1 1 1 0 2 4 3 3 3 5 5 5 5 5 4 3 8 5 4 9 9 9 9 9 8 9 8 8 9 9 9 9 10 10 10 11 11 12 14 14 15 15 13 13 13 13 14 14 15 15 15 16 16 16 17 17 17 17 17 17 17 17 16 16 16 17
1 4 5 4 3 4 4 4 3 2 0 4 0 1 6 4 4 3 1 1 1 3 1 1 1 2 3 1 1 1 2 1 0 1 2 5 6 4 2 3 5 5 4 4 4 2 3 7 14 8 3 8 9 9 8 9 9 8 8 9 9 9 8 9 9 10 10 11 13 14 14 14 14 13 13 13 13 13 14 15 15 15 15 16 16 17 17 17 17 17 17 18 17 17 17 17 18
2 0 2 3 1 4 3 2 2 2 1 4 1 1 3 4 3 2 2 2 2 2 1 0 1 2 0 2 1 1 1 2 2 3 4 4 3 3 1 5 7 5 5 5 3 2 5 7 10 9 5 7 7 8 8 8 8 7 6 8 9 8 8 9 9 9 10 11 12 13 13 13 13 13 12 12 13 13 14 15 15 15 15 16 16 16 16 17 17 17 17 17 17 17 18 19 19
5 7 0 5 3 3 3 3 0 2 4 1 4 6 2 2 5 2 0 1 0 0 2 0 0 1 2 1 1 1 2 1 2 3 3 3 4 3 2 5 6 4 2 5 3 2 3 4 11 7 6 5 6 8 9 9 8 8 7 7 8 8 7 8 9 9 9 11 12 12 13 13 13 12 12 13 13 13 14 14 15 15 15 15 16 16 16 17 17 17 17 17 17 19 19 20 19
2 1 1 2 3 3 2 1 3 2 1 2 1 0 1 2 2 0 2 2 1 2 2 1 1 1 1 2 1 2 0 4 5 1 4 4 4 3 2 3 5 6 3 5 4 2 2 5 4 8 7 7 7 8 9 8 8 8 8 8 9 8 7 8 9 9 9 11 12 12 13 13 13 13 13 13 13 13 14 14 15 15 15 15 16 16 16 17 17 17 17 18 18 18 18 18 18
1 6 3 4 5 2 2 2 2 2 1 4 4 5 3 3 3 1 0 1 0 2 0 3 1 2 1 1 3 2 3 3 2 1 4 5 3 4 3 3 4 5 4 5 5 3 2 2 5 2 7 4 6 5 7 7 9 8 7 8 8 8 7 7 8 9 9 10 11 12 12 12 12 14 13 13 13 13 13 14 14 14 15 15 16 16 16 16 16 17 17 17 18 18 18 18 18
1 1 2 4 2 5 4 5 1 2 4 2 1 0 2 4 1 1 1 5 1 0 1 2 1 5 2 2 2 0 5 1 1 2 4 3 5 5 4 4 5 4 3 4 5 4 2 2 2 6 6 4 3 1 3 4 7 7 6 7 8 7 7 8 8 8 9 9 10 11 11 11 11 13 13 13 12 12 13 14 14 15 15 15 16 16 16 16 16 16 16 17 17 17 17 17 17
3 2 6 6 1 0 1 3 2 1 2 3 3 1 2 4 3 5 4 2 1 4 1 2 1 1 1 2 3 4 1 1 1 1 2 4 4 4 5 5 6 7 7 5 6 3 5 2 2 3 4 5 6 5 4 2 6 7 7 6 7 6 7 8 8 8 8 9 10 9 10 10 10 12 12 12 11 12 13 14 14 15 15 15 16 16 16 16 16 16 16 16 17 17 17 18 18
4 6 5 2 1 3 4 2 1 4 2 3 2 0 1 2 3 5 7 4 1 2 1 1 1 2 0 2 2 2 4 2 1 2 2 5 4 5 6 5 7 7 7 7 6 5 5 5 5 4 1 4 3 5 3 1 4 5 7 8 6 7 8 9 8 7 8 8 9 9 9 10 11 11 11 10 11 11 11 13 14 15 15 16 16 17 17 16 16 16 17 17 17 18 19 19 19
2 2 7 5 1 1 1 5 8 5 5 3 1 1 1 2 2 3 5 5 3 1 3 0 1 1 4 5 5 5 4 2 2 2 4 5 5 6 5 4 6 6 7 6 5 7 5 4 5 4 5 1 4 4 4 2 3 2 5 7 6 7 8 9 9 8 7 7 9 10 9 10 11 11 11 10 10 11 10 11 14 15 15 15 16 17 17 17 17 17 18 18 18 19 19 19 19
5 6 5 3 2 4 3 1 1 3 4 4 1 1 4 1 1 2 3 1 1 1 0 2 2 1 0 5 1 3 2 4 2 3 4 6 4 5 4 4 5 5 6 5 5 5 3 5 6 6 6 6 1 4 4 2 1 5 5 5 5 5 6 7 8 8 8 8 9 10 10 10 9 9 11 8 10 12 10 8 11 13 15 15 16 16 17 17 18 18 19 19 19 19 19 18 18
2 3 3 4 2 2 3 3 6 3 3 3 3 1 2 1 0 0 0 1 5 0 3 0 1 1 2 2 2 3 2 2 4 4 4 4 4 3 3 3 3 3 4 3 4 3 2 6 6 5 5 6 4 1 4 5 5 6 5 6 7 6 6 6 6 7 7 7 8 9 10 7 6 6 6 6 9 8 10 11 10 12 14 14 15 16 16 17 18 18 18 18 17 17 15 17 17
1 2 6 1 2 3 5 7 9 2 3 4 3 3 4 2 0 1 0 5 2 1 1 4 2 0 2 2 2 3 1 5 3 6 4 4 2 3 3 2 1 2 2 2 3 2 2 5 6 5 4 5 4 3 1 3 4 5 5 4 3 5 5 5 5 4 6 5 7 7 6 6 5 5 4 5 6 7 9 12 10 11 13 13 14 16 16 17 17 18 17 17 17 15 13 9 9
5 2 3 6 5 4 6 4 6 2 0 3 3 0 3 3 5 2 1 1 1 0 1 2 3 3 1 0 3 2 3 4 4 5 6 6 5 7 5 1 1 2 2 4 4 6 5 5 5 4 3 4 3 3 1 2 5 4 4 4 5 4 4 5 4 2 5 5 5 5 5 5 5 5 4 5 6 8 8 11 11 12 13 13 13 15 15 16 17 17 17 16 15 14 9 7 7
1 3 1 1 7 2 4 4 4 2 3 4 4 1 1 1 1 1 1 2 0 4 4 1 2 5 5 2 0 3 4 5 4 5 6 5 4 4 4 3 1 1 1 3 4 4 5 5 3 3 3 5 4 3 3 1 4 4 4 4 4 4 3 4 4 4 4 5 6 5 4 5 5 5 6 9 9 6 6 9 12 15 14 12 12 9 11 13 15 15 15 14 10 7 7 7 7
0 2 3 2 4 1 2 5 4 4 2 3 3 1 1 1 2 1 3 2 4 6 7 8 10 9 8 5 3 4 5 5 4 4 5 4 2 0 2 2 1 1 1 3 2 2 3 4 4 3 3 3 2 2 2 1 1 4 4 4 4 4 4 3 4 5 4 5 5 5 5 5 5 5 6 5 5 5 5 5 5 7 6 6 8 7 7 7 7 7 8 8 7 8 9 8 7
3 1 1 1 1 0 1 4 3 4 2 5 2 5 3 1 1 1 6 6 7 7 6 9 6 6 9 10 7 4 6 6 5 5 6 6 6 4 1 1 1 2 3 3 4 5 5 2 2 4 4 3 3 2 2 2 1 3 4 4 4 4 4 4 5 4 4 5 5 5 5 5 5 5 6 6 5 5 6 5 5 6 6 6 5 6 6 7 7 6 7 8 7 7 9 8 8
1 1 0 3 1 0 1 2 4 5 3 4 4 2 3 2 1 1 5 8 5 3 3 4 5 5 6 4 6 6 7 8 7 7 6 5 4 3 3 1 0 0 2 2 3 3 4 5 5 3 4 4 3 3 3 0 0 1 2 4 5 4 4 4 4 4 4 6 5 5 5 5 5 6 6 6 6 5 5 5 5 6 7 6 5 6 6 6 6 7 7 7 7 9 9 9 9
6 2 0 0 2 1 2 1 4 1 8 3 2 1 2 2 4 1 3 8 4 3 3 4 4 3 6 9 6 8 8 8 8 4 4 4 5 5 4 4 1 0 1 2 3 3 4 5 4 5 3 3 3 2 0 2 1 1 3 3 6 5 5 4 4 5 4 5 6 5 5 5 5 6 7 5 7 4 5 4 5 6 6 6 5 5 6 5 6 6 7 8 9 9 10 9 8
2 1 1 0 1 2 2 1 2 0 0 1 2 1 1 4 2 1 7 9 2 1 2 3 4 5 4 6 6 5 5 4 5 3 0 0 1 0 0 1 1 0 1 2 3 3 4 4 3 3 4 4 4 2 2 2 2 2 1 2 2 5 5 4 4 4 4 3 4 5 3 5 5 5 7 4 6 6 5 5 5 6 6 6 5 5 6 6 6 6 7 8 8 9 9 9 9
0 0 1 1 0 4 1 1 0 1 1 1 1 3 2 2 3 5 12 4 1 2 4 3 5 6 6 6 6 6 6 6 4 4 4 1 0 2 1 1 0 1 1 1 2 3 4 4 3 3 5 4 4 3 3 3 3 4 4 3 3 4 5 5 6 4 4 2 4 3 4 4 4 2 6 5 5 6 6 6 6 5 6 5 5 6 5 6 6 7 7 8 9 9 9 8 9
2 1 1 1 1 3 2 1 1 1 0 0 2 2 0 3 2 9 1 2 3 4 3 1 5 7 5 5 4 4 5 6 7 3 2 1 2 3 3 1 1 2 1 1 3 3 3 3 4 2 4 5 4 3 4 4 4 4 4 3 3 3 4 6 5 5 4 3 3 4 3 5 4 4 5 4 6 6 6 6 7 6 7 6 5 6 5 6 5 6 7 8 9 10 9 8 9
3 1 0 1 7 1 1 1 2 0 2 3 3 3 1 2 2 12 1 2 2 5 3 3 3 5 4 4 4 3 3 4 3 4 8 6 7 5 4 3 3 2 1 3 3 2 3 3 3 2 2 3 3 3 4 5 5 5 5 2 4 4 5 6 4 5 5 4 3 3 4 5 6 6 8 7 7 7 5 6 7 7 7 7 7 7 7 6 7 7 8 8 10 10 9 9 8
0 0 0 3 6 3 0 4 1 1 2 3 4 1 3 1 8 8 1 1 1 4 5 4 4 4 4 3 3 3 5 4 3 5 6 4 3 3 5 4 3 3 1 2 3 2 3 3 3 3 2 1 2 3 4 3 6 5 5 3 4 5 5 5 4 5 5 4 3 3 5 7 6 8 7 8 7 7 6 6 7 7 7 8 8 10 10 7 7 8 8 9 10 10 10 9 9
0 5 1 4 6 4 2 0 1 4 1 4 2 5 7 10 16 2 0 5 3 2 4 4 4 4 4 4 4 4 4 4 6 7 4 4 4 4 4 4 3 2 2 2 2 3 2 2 1 2 4 5 5 4 4 4 4 6 5 4 4 6 5 4 4 5 5 5 4 3 5 6 7 6 7 7 7 7 7 7 7 7 6 8 8 8 8 6 6 8 9 9 8 10 10 9 9
2 1 4 1 3 4 2 0 1 4 1 3 1 4 8 7 8 4 2 5 8 7 7 5 5 5 5 5 5 6 7 5 6 6 5 4 3 3 4 3 3 2 1 2 2 1 1 1 2 2 4 4 5 5 5 4 4 6 6 5 4 6 5 4 3 4 5 5 5 4 5 3 6 8 6 7 7 7 7 7 6 6 6 7 8 7 9 7 7 7 8 11 9 9 9 8 9
2 1 3 3 3 5 7 2 5 4 1 0 3 4 11 10 10 3 1 4 5 8 6 6 7 6 6 5 6 7 7 5 6 6 5 5 4 4 4 3 2 1 2 2 2 0 0 2 2 3 5 5 5 5 5 4 5 5 6 5 4 6 6 5 2 3 6 5 5 5 4 5 6 8 6 6 8 7 7 7 6 6 6 6 7 7 8 9 7 7 7 10 12 9 10 9 7
5 1 3 0 1 4 8 1 1 3 1 1 5 7 4 5 3 3 0 4 4 5 6 6 8 8 8 7 7 6 6 7 7 8 6 6 5 4 4 3 2 3 3 3 3 2 2 3 4 3 5 5 6 6 6 6 5 6 7 5 5 7 7 4 3 3 5 7 6 5 3 6 7 7 7 6 8 9 8 8 6 7 6 8 8 7 7 6 7 8 7 6 10 11 10 10 8
3 2 3 3 2 1 2 6 0 1 1 4 2 3 8 5 4 1 1 4 4 6 9 9 8 8 8 6 7 8 8 8 12 10 8 6 5 5 4 3 3 3 4 4 4 4 4 3 4 4 5 5 4 5 6 5 5 6 6 4 6 7 7 5 5 3 4 6 7 6 5 7 7 7 7 7 8 8 8 8 7 6 7 7 7 8 7 6 7 8 10 7 7 10 9 10 9
2 1 1 5 1 2 5 1 0 2 1 3 1 5 12 13 12 6 5 5 6 10 11 9 7 7 8 9 8 10 10 11 14 7 7 6 5 5 4 4 4 3 4 4 4 3 3 4 4 5 5 6 5 5 7 7 7 6 7 7 7 7 5 7 4 4 4 6 6 6 6 7 8 7 8 8 9 8 8 7 7 6 6 7 8 8 8 7 8 7 12 9 8 7 9 8 9
2 7 5 3 2 2 3 6 3 4 2 4 5 9 11 12 13 13 4 5 8 10 6 8 9 8 8 9 10 10 12 14 7 5 6 5 5 6 5 5 4 4 4 5 5 5 5 4 5 4 5 5 4 5 5 4 4 6 8 7 8 6 4 6 4 5 5 6 6 6 7 7 7 7 7 8 8 8 8 7 8 6 7 8 9 10 8 7 10 12 11 13 12 9 7 7 7
5 3 2 3 3 5 4 4 5 1 0 8 10 9 8 10 11 13 4 4 5 8 10 11 11 10 10 10 12 14 12 14 4 7 7 7 8 6 6 5 5 5 5 6 6 6 6 6 7 6 5 5 4 5 5 4 6 7 6 6 5 3 4 5 5 5 5 3 7 7 7 7 7 7 7 7 8 8 7 7 8 7 6 7 8 8 9 9 7 10 10 9 13 11 6 3 3
1 2 1 5 2 8 4 1 1 1 3 3 2 5 9 13 12 14 2 2 9 11 12 13 15 13 11 13 15 14 12 1 5 5 6 5 6 6 6 6 6 8 6 7 7 7 7 7 6 7 6 4 4 4 5 3 3 1 7 6 5 5 6 6 6 5 4 2 8 8 7 7 7 7 6 6 7 8 8 7 7 8 8 8 8 8 8 8 9 9 11 9 5 7 4 2 2
2 3 2 1 7 5 9 5 2 2 1 9 5 10 12 10 11 12 10 12 9 9 12 15 15 13 12 13 15 12 5 7 6 8 7 8 8 8 8 7 7 7 8 8 7 7 7 7 6 7 6 6 5 4 5 5 6 5 5 5 4 5 6 5 4 4 5 5 8 7 7 6 6 6 6 5 7 7 8 8 7 7 8 9 10 9 8 8 7 8 8 12 8 4 4 3 3
3 1 1 8 3 1 6 1 3 0 4 3 1 7 10 7 10 15 16 14 8 8 12 16 13 12 13 17 14 10 11 9 11 11 12 9 9 9 9 9 8 7 7 7 7 8 7 6 7 7 6 5 5 5 7 7 8 8 9 8 7 5 6 5 6 6 7 10 9 8 7 6 5 6 5 5 6 7 8 8 7 7 7 4 9 10 8 7 7 7 7 7 11 7 2 4 5
3 5 5 4 3 6 7 5 3 1 1 2 4 9 10 8 12 10 8 3 5 14 12 12 13 12 15 8 5 10 13 12 11 10 10 11 12 13 13 10 8 9 9 8 8 8 6 8 8 8 7 6 5 6 7 9 9 8 8 10 8 9 7 6 6 7 5 6 8 8 7 6 5 6 6 6 6 8 7 7 7 7 8 6 7 9 8 7 6 5 7 8 5 10 5 2 6
3 6 11 9 6 6 4 3 4 7 5 3 3 6 5 5 8 12 6 5 5 6 5 14 17 14 10 12 15 6 7 8 14 15 16 14 12 10 11 12 11 9 10 9 8 8 8 8 8 7 6 6 6 6 8 9 9 11 11 10 8 6 7 5 6 8 6 6 6 2 7 6 6 6 6 6 7 7 8 7 7 8 8 7 7 8 8 7 6 6 4 7 6 3 9 6 4
1 5 8 11 7 2 1 1 3 3 3 2 2 1 11 2 5 7 5 3 10 8 6 13 12 13 7 11 10 8 9 7 7 8 9 12 12 12 12 13 12 11 9 8 7 8 8 8 8 8 7 7 8 7 7 8 7 5 6 6 8 11 12 2 3 5 5 4 3 6 5 6 6 6 6 5 6 6 7 7 7 8 8 7 7 8 8 7 6 5 4 7 7 8 7 7 7
4 2 3 4 3 5 5 3 5 6 1 4 1 2 7 16 7 6 8 8 9 8 14 14 15 13 8 8 7 7 9 10 11 13 13 13 13 16 17 15 12 11 8 8 8 7 9 9 9 8 7 7 7 8 6 7 8 7 6 6 6 6 6 7 6 5 4 4 7 7 6 6 5 5 5 5 5 5 7 7 7 8 8 6 7 7 9 7 7 5 5 7 6 4 6 11 7
3 1 6 4 5 4 3 3 3 0 3 9 1 0 2 8 3 3 2 3 6 12 14 16 15 9 6 8 9 9 10 11 11 11 13 14 15 13 11 12 10 9 8 9 8 8 8 8 8 8 8 8 8 9 8 7 6 6 7 7 8 4 8 7 6 5 5 4 9 6 6 5 5 4 3 4 4 4 5 7 7 8 8 7 7 8 7 6 8 9 8 7 8 6 5 6 7
1 5 7 7 7 6 3 3 3 1 1 8 6 5 3 19 3 3 4 2 7 11 14 16 13 6 5 7 7 7 5 5 5 7 8 9 9 9 9 8 9 8 7 6 7 7 8 8 9 9 9 8 8 9 8 7 6 6 8 8 11 10 10 7 6 7 7 6 8 6 5 5 5 5 4 3 4 4 5 5 6 7 7 7 6 8 7 7 7 7 7 8 8 9 5 7 8
7 4 7 5 8 4 3 6 2 2 4 10 9 10 6 12 2 8 8 8 10 11 8 8 7 5 6 7 6 3 4 4 5 5 6 7 5 6 9 11 9 7 7 8 8 9 8 9 10 10 9 8 8 8 8 8 7 7 7 10 12 14 11 10 10 8 7 6 8 6 6 5 4 5 4 3 3 4 5 4 6 6 6 6 7 7 7 8 7 8 7 8 8 10 8 9 8
5 2 3 4 2 6 2 4 4 1 9 1 2 8 8 12 4 6 7 4 3 7 8 10 9 7 6 4 4 3 3 4 5 6 6 7 7 7 10 11 10 10 9 9 9 9 9 9 10 11 9 9 9 8 8 6 7 6 6 8 11 13 15 12 13 13 10 10 9 9 5 6 4 4 3 5 4 4 5 5 5 6 6 6 6 5 5 6 6 6 6 7 7 7 8 8 8
3 5 7 6 4 5 3 2 2 5 9 1 2 1 4 18 13 4 6 10 8 8 10 11 10 10 7 5 4 2 3 4 6 6 7 9 11 13 13 12 11 11 11 11 11 10 10 10 11 12 12 11 10 10 10 9 8 8 9 10 10 11 13 14 12 12 11 11 10 9 9 8 6 7 5 6 4 4 5 7 6 6 6 5 5 5 5 5 6 6 6 7 7 7 7 8 8
4 8 7 6 0 1 5 4 2 7 7 3 0 1 9 2 8 13 19 17 14 8 10 10 10 11 9 2 1 3 4 6 7 8 9 11 12 12 13 14 13 11 12 12 11 10 9 10 11 12 12 11 10 9 9 10 9 9 9 9 10 10 10 11 11 13 11 9 9 10 10 10 9 9 8 7 6 5 4 5 5 6 5 5 5 6 6 5 5 6 6 7 6 4 5 7 8
10 2 11 10 9 7 4 5 6 9 5 2 5 1 8 4 4 2 10 5 5 6 8 5 7 8 6 3 2 3 4 5 6 9 10 11 12 13 13 13 13 12 12 12 11 10 9 10 11 12 11 10 10 10 9 10 9 9 9 8 9 8 10 10 9 9 11 11 8 9 8 7 8 7 7 6 5 5 5 6 5 6 5 5 5 6 6 6 6 7 6 7 6 5 5 7 6
3 2 5 3 9 6 6 5 3 1 3 5 2 7 4 6 3 7 5 5 7 6 8 5 12 7 3 5 6 5 6 7 8 9 9 10 11 11 11 11 12 11 12 11 11 10 11 11 11 12 14 13 12 12 11 11 11 9 9 11 10 9 7 7 7 6 7 9 10 9 9 7 6 7 6 6 4 6 6 7 6 6 5 6 6 6 6 6 5 8 7 6 7 3 6 7 5
4 6 7 5 2 6 4 3 2 1 2 12 3 10 6 8 10 12 13 8 11 4 5 7 11 7 4 8 6 5 6 8 9 10 10 10 9 10 11 11 11 11 11 13 13 12 13 12 12 12 12 11 12 13 12 11 10 10 10 9 9 8 9 11 11 10 9 7 8 7 8 7 6 6 7 5 7 5 6 7 7 7 6 6 6 6 6 5 5 7 7 7 7 4 7 7 5
9 4 8 2 2 3 4 6 2 4 4 9 3 9 8 3 15 3 1 5 13 8 12 12 6 5 6 10 5 5 7 8 7 6 6 8 9 10 9 9 11 12 13 12 12 11 11 11 12 12 11 12 11 11 10 9 10 10 9 9 8 9 10 9 9 10 9 9 7 6 6 7 7 6 6 6 6 7 6 7 8 7 6 6 7 6 6 6 7 7 7 6 5 6 8 6 5
5 5 5 8 4 3 2 4 5 1 5 8 5 2 9 10 13 1 2 3 7 10 11 6 10 8 10 6 6 6 5 5 6 8 8 9 10 11 11 11 9 10 11 10 10 11 10 9 10 11 13 13 13 10 8 7 8 8 8 9 10 7 5 6 6 6 8 9 9 7 7 6 6 6 7 7 7 7 7 6 7 7 7 7 6 6 6 6 7 8 6 7 5 6 8 7 4
1 3 4 1 3 1 6 7 3 5 5 2 9 5 15 6 7 8 10 11 9 6 5 9 10 10 3 4 5 7 7 8 7 8 8 8 9 10 11 11 12 12 11 10 10 9 11 10 10 9 8 8 9 10 9 9 7 6 6 5 5 5 7 6 6 8 8 8 8 8 7 7 7 6 6 6 6 6 6 7 6 7 7 7 7 6 6 7 6 7 7 7 5 6 7 7 5
1 2 4 1 0 2 4 1 4 3 4 3 3 11 13 4 7 9 9 9 9 9 9 8 8 4 3 4 5 6 7 8 8 9 9 9 10 10 10 9 8 6 6 7 9 11 10 9 9 9 11 9 9 8 9 9 8 8 8 9 8 7 7 6 7 6 7 7 7 7 6 6 7 6 7 7 6 6 6 7 7 7 8 7 7 7 6 6 7 7 6 7 6 5 7 5 6
14 16 14 16 11 5 4 7 2 2 3 7 6 14 14 2 3 8 7 7 9 7 5 7 7 4 5 4 5 6 6 8 7 7 7 8 8 8 7 6 5 5 7 9 9 9 10 10 9 9 9 10 11 10 9 8 7 8 10 9 7 6 7 6 7 7 6 6 7 7 7 7 7 6 7 7 7 6 6 6 7 7 7 7 6 7 6 6 8 9 8 6 6 6 6 5 5
Wind_Direction
350 351 345 6 53 98 55 1 127 340 59 323 15 28 189 355 212 32 194 343 323 282 244 45 131 40 214 214 166 147 195 106 207 124 209 236 238 256 259 243 228 139 151 144 142 148 165 212 149 137 133 127 120 119 116 113 112 108 105 104 102 100 97 98 97 98 99 99 99 98 92 86 83 76 69 65 63 58 54 53 53 54 56 58 59 60 61 61 62 62 64 65 64 65 68 71 75
358 343 33 11 46 51 307 122 97 355 39 62 224 96 242 283 52 208 197 194 218 105 164 106 87 84 60 80 106 127 43 19 170 100 275 235 321 22 2 184 176 150 151 130 135 154 173 169 147 147 135 128 126 124 122 118 116 112 110 108 105 106 104 101 100 98 96 98 100 98 95 90 84 77 70 64 60 57 55 55 54 54 56 56 57 58 59 60 61 63 65 66 67 68 70 74 80
359 11 0 22 33 71 89 31 299 44 87 94 276 206 327 98 175 235 226 203 160 164 171 104 95 55 15 22 15 56 23 57 88 149 229 320 126 298 341 198 221 156 150 143 135 147 148 161 149 154 138 133 131 126 122 122 121 118 115 110 108 108 107 102 99 98 99 100 100 99 98 91 83 75 69 64 61 59 57 56 55 55 57 58 59 59 59 61 64 66 68 69 71 71 75 81 85
84 27 116 61 227 31 55 30 83 123 111 201 303 277 171 165 221 198 242 205 174 110 302 2 53 265 91 47 185 133 339 30 130 167 26 32 130 268 296 301 169 148 139 145 142 142 155 154 159 151 145 140 135 126 124 126 123 122 115 114 110 110 109 106 102 101 101 100 100 101 97 89 82 76 71 66 61 59 58 57 55 55 56 58 59 59 61 62 64 67 69 71 71 71 78 83 85
67 8 69 101 106 5 100 114 135 102 104 203 165 271 253 206 180 218 264 256 271 225 324 180 78 349 152 125 350 130 224 285 339 143 251 259 232 259 282 277 143 150 157 150 144 156 157 152 204 153 147 141 136 131 128 129 127 123 115 116 112 110 112 111 108 104 103 104 105 100 95 89 84 80 74 67 61 59 56 56 56 55 56 58 59 59 59 61 64 67 68 70 71 73 79 83 84
65 50 1 71 46 158 67 66 56 106 220 149 113 220 220 209 175 198 265 320 285 181 195 53 169 194 16 304 169 93 227 56 285 307 160 249 328 319 277 265 134 155 159 149 155 144 161 153 88 338 154 147 141 135 133 132 132 121 120 118 116 113 114 112 111 111 108 106 103 98 95 90 88 82 75 70 65 61 59 58 58 56 56 56 58 61 61 62 64 67 70 70 70 74 78 80 79
306 47 360 34 29 44 169 118 160 175 204 158 180 243 203 199 215 119 210 31 290 73 192 205 106 99 62 292 354 229 197 225 42 254 167 283 307 306 267 177 126 152 162 140 143 151 147 149 136 212 173 151 145 139 135 136 131 130 126 124 117 116 116 115 112 110 109 109 107 106 101 97 94 89 83 77 70 65 62 62 61 60 59 58 59 60 62 65 67 68 68 69 70 73 76 78 79
60 108 327 104 314 47 46 166 146 163 339 179 250 227 238 199 160 137 215 126 205 162 26 120 11 107 251 66 186 258 340 186 242 284 285 289 298 318 156 152 148 150 150 149 148 130 154 161 143 182 166 154 151 142 138 135 135 132 130 128 123 118 121 118 112 110 111 112 114 111 107 104 100 96 90 81 73 68 66 65 65 64 63 62 62 63 65 68 69 70 71 70 71 72 72 72 68
0 89 6 68 56 28 60 72 237 232 285 286 283 220 248 195 152 123 311 245 79 140 152 239 275 80 228 67 209 262 291 275 276 262 284 316 355 323 176 153 143 123 117 135 129 134 158 172 159 183 154 134 159 156 144 137 135 138 140 134 127 122 121 118 114 113 118 117 116 114 109 105 101 94 88 82 76 71 70 69 68 68 67 67 66 66 68 71 72 72 72 72 72 71 68 64 63
45 56 263 110 136 44 28 309 90 183 244 233 235 214 176 162 145 215 181 85 171 134 216 307 154 83 134 168 315 346 130 333 299 357 347 347 0 22 97 131 146 140 139 124 141 150 153 173 188 151 186 162 171 167 151 142 142 146 149 146 136 128 122 123 122 122 122 122 119 119 116 114 107 100 90 83 78 74 73 73 73 72 72 70 69 70 72 73 74 76 76 77 77 74 71 69 66
318 21 133 75 31 104 151 219 270 315 257 315 299 237 218 145 128 151 340 159 341 167 283 222 29 147 95 249 212 244 310 320 65 19 327 339 13 32 54 104 134 136 144 131 142 141 139 154 185 146 199 171 131 194 150 143 148 150 146 147 141 134 129 128 129 127 128 128 126 123 121 117 110 102 93 85 82 79 77 77 77 76 75 74 73 73 73 76 77 78 77 77 75 73 72 71 69
358 29 11 99 151 154 220 155 237 267 306 337 206 356 193 142 107 119 169 126 213 86 150 129 239 145 77 336 295 279 321 10 21 303 312 4 34 21 31 44 64 66 95 138 135 155 145 175 126 131 273 151 127 142 103 158 139 141 144 145 138 135 130 126 128 132 133 130 129 128 124 115 106 104 98 93 87 84 82 79 77 77 76 76 76 75 74 75 76 77 79 79 79 79 77 75 73
110 94 85 82 172 108 177 109 203 314 356 276 179 49 121 114 188 191 181 126 69 118 293 211 210 92 177 194 255 315 339 230 337 335 358 52 38 39 43 53 60 58 40 47 62 69 165 162 122 157 169 170 152 156 97 221 134 147 141 136 135 132 130 132 133 134 133 132 132 130 119 113 111 107 102 97 95 89 85 82 80 79 77 76 76 75 74 73 74 75 76 76 77 78 76 74 71
118 175 122 135 43 120 132 166 8 151 256 243 271 272 188 132 247 174 136 125 206 161 238 296 148 139 119 6 304 280 249 254 331 58 52 64 59 70 57 51 58 51 41 48 55 38 39 50 42 17 169 178 151 137 119 289 155 155 142 137 140 138 138 138 136 134 138 134 126 116 112 109 113 110 106 103 98 89 84 87 85 82 79 78 77 76 74 73 73 72 72 72 73 72 72 70 66
109 144 82 113 57 94 235 127 198 160 228 194 202 129 116 304 95 127 153 142 236 209 301 356 198 116 235 153 277 220 221 175 156 66 79 76 67 73 64 58 67 56 49 44 41 44 4 25 29 44 27 302 149 156 171 191 63 87 125 137 141 143 143 142 142 140 134 130 126 123 112 113 119 113 110 110 103 94 84 85 89 85 81 79 78 77 76 75 73 71 69 68 67 67 68 67 66
139 87 82 97 169 138 227 122 28 100 256 185 296 187 90 331 206 130 245 156 185 328 35 198 8 194 260 177 243 252 211 125 141 98 88 85 78 64 70 59 68 58 59 36 48 35 340 56 36 19 16 349 56 154 152 203 150 108 86 117 134 143 137 137 143 138 136 130 123 119 108 112 113 115 117 111 105 98 93 92 91 91 87 82 79 79 78 77 74 73 71 70 68 66 64 62 62
58 83 59 48 165 165 213 144 141 195 239 254 282 189 146 195 273 247 149 82 123 210 12 165 236 357 202 208 281 294 299 152 99 92 92 87 86 87 59 58 43 55 40 37 49 19 310 52 44 40 15 344 346 344 139 171 174 138 113 101 111 120 129 142 144 131 123 109 112 115 110 112 117 120 117 113 101 99 104 95 93 94 91 86 82 81 81 80 81 79 77 73 70 66 61 59 58
56 67 114 97 197 150 203 175 185 198 125 227 212 204 116 158 121 201 251 29 59 342 55 310 317 299 226 262 311 269 252 138 129 123 125 131 128 139 113 32 24 87 351 331 38 26 20 37 38 30 4 333 339 326 99 161 146 163 131 120 90 120 138 136 152 139 130 109 112 117 113 122 125 124 118 109 102 105 108 105 100 92 87 83 84 85 84 83 84 84 81 76 73 70 65 62 58
87 127 88 201 175 230 158 197 191 117 276 179 199 117 154 199 140 218 99 285 3 95 294 22 329 305 330 354 343 105 159 139 141 139 152 163 173 176 178 123 62 0 8 352 351 11 18 32 26 12 351 307 335 7 326 182 142 151 151 136 109 90 122 140 117 122 135 111 125 124 126 135 134 130 130 121 109 100 101 108 100 84 77 76 82 85 85 83 84 83 78 74 71 67 62 60 61
191 114 156 258 204 237 206 166 197 209 134 136 167 210 144 230 138 129 223 170 26 212 214 312 271 243 229 259 11 142 159 152 148 150 159 172 183 172 169 182 143 68 332 344 334 349 0 31 3 323 340 331 343 4 304 210 154 151 154 158 143 129 129 136 141 128 123 130 136 132 133 139 139 134 114 112 109 111 105 91 92 89 81 75 76 74 70 70 75 74 74 72 67 64 64 57 59
204 68 156 208 185 108 224 176 222 206 167 145 142 122 121 261 212 160 163 105 258 262 228 182 205 218 206 213 203 183 164 163 162 158 154 162 176 234 199 189 167 335 298 297 313 332 352 16 347 325 336 317 317 313 316 8 131 167 158 152 161 147 137 143 137 134 134 147 143 141 140 141 136 134 134 128 116 122 119 116 102 90 92 87 85 88 88 80 75 74 72 69 69 70 69 58 56
90 69 189 181 151 35 200 190 173 145 134 107 118 129 217 92 63 129 150 190 233 212 236 215 219 199 175 187 199 176 177 176 179 173 179 173 177 186 197 302 304 293 321 4 343 334 341 353 337 321 319 311 320 311 342 312 350 199 157 157 153 158 153 152 144 131 160 140 153 143 142 145 141 139 144 140 131 138 132 123 111 107 100 100 99 95 93 94 85 81 80 79 74 72 75 74 63
68 336 317 201 218 167 316 144 188 123 130 139 139 217 90 142 229 195 178 209 232 218 257 244 226 209 182 130 144 173 181 188 187 191 181 180 181 188 195 218 201 39 358 322 321 318 327 334 339 331 313 310 299 296 304 53 167 264 195 168 158 161 159 147 149 146 163 157 158 153 155 158 149 154 152 150 146 147 134 132 120 116 118 111 108 106 93 85 90 89 85 85 82 79 75 74 73
104 154 323 257 177 261 34 22 106 115 129 200 203 62 157 133 233 114 215 243 229 262 272 247 224 160 140 150 178 180 185 187 196 193 198 193 184 188 186 180 231 287 11 315 325 326 328 321 320 322 312 302 296 304 326 11 2 218 206 188 164 147 143 132 137 145 151 159 164 165 169 162 156 161 157 165 145 128 114 108 114 112 110 109 99 92 94 79 82 85 90 85 85 80 79 74 74
75 55 206 248 124 255 312 92 82 75 167 351 107 136 254 181 190 46 248 245 244 23 78 92 111 121 133 149 171 172 179 191 195 200 159 37 202 233 286 283 280 42 320 315 312 336 315 303 311 310 311 303 288 231 113 72 61 40 50 104 116 132 129 123 123 127 122 135 143 149 172 166 159 174 155 165 139 129 118 111 107 111 109 108 106 92 96 96 86 87 86 91 90 88 83 78 76
130 208 146 340 30 323 323 5 47 42 333 98 100 265 294 263 284 255 246 259 198 116 75 98 119 132 162 175 178 177 184 191 178 175 192 194 184 161 236 256 296 194 225 293 329 301 296 310 316 312 293 282 244 186 139 119 88 86 54 73 95 103 116 112 115 94 92 91 104 126 150 152 145 159 141 136 125 120 118 110 101 93 88 90 94 93 95 99 104 99 98 96 95 90 85 83 83
131 124 86 101 318 352 30 190 357 15 272 300 191 273 264 338 94 273 347 215 134 91 99 97 148 166 178 180 190 200 182 192 187 158 130 181 219 191 222 271 260 237 356 321 296 283 296 304 288 259 267 247 246 176 146 118 98 96 83 32 86 97 100 101 99 100 82 76 88 112 118 114 122 122 101 106 127 123 113 114 108 100 90 80 78 92 92 100 97 95 103 106 102 96 90 86 82
40 116 84 30 339 296 240 0 280 9 285 157 181 251 307 317 86 240 219 146 175 137 155 164 176 183 192 202 199 207 208 211 185 169 191 191 203 194 211 199 229 274 299 284 274 305 316 306 307 302 261 244 231 141 129 125 113 102 92 84 82 74 86 84 92 94 88 74 57 109 113 112 112 97 112 121 116 110 125 117 117 115 113 109 101 90 82 82 91 91 91 93 93 93 93 86 83
251 165 316 298 357 354 318 207 295 162 248 149 163 335 274 184 229 241 287 130 144 151 176 199 207 216 225 229 224 217 216 209 199 207 214 207 181 187 198 210 193 221 245 242 274 319 309 313 333 334 354 39 108 105 105 107 120 106 97 104 89 78 77 86 86 95 94 81 70 96 103 106 107 120 122 123 121 112 110 105 103 105 115 117 113 111 105 98 97 103 94 95 92 90 88 84 82
330 35 91 335 1 331 315 263 31 143 246 140 165 281 254 236 239 235 194 145 114 151 208 216 226 231 237 234 227 238 243 222 219 219 213 212 204 193 199 223 202 186 258 276 300 286 316 303 348 20 32 46 55 57 77 92 99 106 96 85 83 85 66 92 99 99 98 92 77 74 85 105 112 108 119 120 122 114 108 108 112 108 109 112 109 107 103 103 97 100 102 92 86 91 89 90 90
149 259 65 84 11 277 296 81 190 149 175 167 77 228 275 268 273 272 233 167 166 202 217 218 225 235 231 227 230 230 236 219 223 222 227 223 217 198 198 238 187 163 205 253 235 292 321 352 8 63 64 69 69 75 76 87 84 102 106 93 81 90 82 76 97 112 108 98 94 70 82 78 111 103 99 109 105 107 104 99 93 103 107 108 106 101 106 96 104 104 107 98 91 86 87 83 85
16 46 293 326 150 277 296 237 168 161 348 17 121 279 256 270 269 301 269 183 181 218 216 224 227 227 229 229 229 233 235 231 240 238 228 224 203 198 197 223 185 161 194 230 218 259 4 50 49 85 83 70 76 77 77 80 78 84 91 87 89 91 86 76 33 73 93 94 91 83 71 94 80 95 101 103 103 97 103 99 99 102 107 105 102 107 107 109 115 100 86 111 107 97 97 87 82
354 79 271 271 70 266 336 19 259 346 103 350 176 233 328 305 279 321 215 173 202 228 246 236 233 232 230 228 227 232 241 245 243 234 225 207 207 194 195 207 178 203 185 189 198 140 107 88 85 73 95 91 96 90 79 73 67 80 76 86 84 79 76 66 59 55 81 87 81 82 78 90 86 86 94 100 104 104 101 102 99 100 97 100 101 99 100 107 111 102 89 85 108 114 104 100 85
301 22 215 203 192 260 265 307 103 276 126 205 265 226 240 247 263 331 213 181 184 230 244 242 233 231 228 232 230 228 227 228 228 218 215 199 197 197 194 195 186 193 190 186 189 167 149 120 95 88 97 87 96 91 89 82 80 69 76 72 74 71 69 51 44 53 74 84 86 84 82 85 83 87 93 98 97 99 104 108 109 106 107 104 103 101 95 93 95 107 98 76 95 110 108 107 100
219 186 311 295 278 209 251 327 251 122 8 203 272 241 265 270 280 252 215 185 192 226 231 241 241 236 232 229 232 231 229 225 230 202 190 190 192 197 191 184 190 194 185 180 162 148 121 120 110 103 105 105 90 89 96 94 89 82 78 61 61 68 61 52 43 61 69 80 79 87 84 88 87 88 92 98 104 107 106 105 106 106 109 106 103 103 103 101 101 102 107 95 68 72 106 103 108
196 168 181 169 194 231 201 237 278 181 209 235 223 227 246 261 267 276 210 196 196 237 265 270 254 242 236 230 234 231 228 235 218 179 181 182 188 189 184 177 188 190 180 173 159 154 133 131 124 109 114 110 108 106 102 96 93 97 90 71 61 57 52 77 48 52 59 82 87 84 82 84 86 93 96 99 105 107 108 108 107 105 105 108 110 112 115 114 122 112 107 110 103 84 68 93 107
96 91 113 204 220 281 279 266 256 207 335 232 231 239 248 262 263 263 263 167 230 254 257 252 248 240 233 234 232 231 227 234 158 177 179 185 189 189 182 174 185 184 180 170 165 167 161 158 144 139 137 132 144 130 127 126 121 106 69 78 96 62 64 63 64 51 59 58 90 82 81 84 88 93 95 105 108 106 107 110 106 100 104 105 107 109 115 118 115 113 111 102 114 110 78 49 71
132 112 175 279 155 255 233 242 29 305 171 294 275 258 255 254 264 265 275 148 237 231 241 249 249 237 233 231 236 230 229 90 145 175 192 191 189 189 176 183 178 182 187 177 175 178 169 162 153 147 143 146 137 138 132 111 49 80 128 125 114 91 78 78 73 36 30 51 79 81 76 82 86 89 96 105 109 116 116 110 111 117 113 107 104 105 108 112 118 118 118 90 30 102 99 351 329
67 196 201 324 267 251 275 267 324 275 116 262 288 273 261 255 258 269 261 239 240 229 223 240 239 241 235 234 237 234 199 206 174 194 185 192 191 188 183 187 191 190 182 183 179 171 168 161 156 150 151 149 139 126 114 106 95 83 97 110 103 98 58 61 73 81 65 50 38 66 72 75 84 86 92 102 112 111 110 112 111 114 113 123 115 107 111 109 116 120 122 124 108 53 97 38 13
155 113 144 236 230 23 299 312 10 67 176 272 332 295 276 268 256 254 253 237 243 245 242 246 243 243 238 233 228 221 218 199 196 189 194 189 189 189 185 190 191 187 181 184 178 173 170 167 159 155 150 134 125 112 104 90 92 90 80 83 75 81 111 89 84 58 73 42 50 54 42 66 69 87 82 95 102 99 106 110 113 108 103 104 121 121 116 113 110 107 108 116 126 115 57 39 18
257 189 204 237 210 229 191 255 311 267 357 56 324 280 275 222 251 261 264 303 253 257 252 258 258 238 246 266 257 215 215 199 195 190 192 190 191 194 189 184 181 192 185 184 180 177 171 169 163 157 146 138 120 122 115 113 112 98 100 96 97 97 84 99 96 61 33 67 70 31 28 50 66 79 77 79 95 101 99 104 105 103 105 105 110 112 113 118 115 119 128 129 130 137 124 107 25
288 230 201 217 216 237 276 346 6 2 335 352 54 326 288 262 235 250 282 329 297 267 253 257 256 251 239 242 242 225 223 196 194 194 193 191 190 182 185 185 190 190 187 185 179 175 164 162 155 145 136 131 123 123 126 134 141 138 138 130 127 115 119 141 134 136 124 69 72 74 44 36 36 61 77 85 90 101 105 107 111 112 109 109 109 112 119 115 115 115 126 127 101 66 127 109 86
217 273 201 213 217 206 239 274 67 301 247 312 29 284 290 205 246 240 265 255 259 281 260 263 264 258 236 236 239 220 210 201 203 194 184 184 191 186 186 189 190 189 187 173 174 171 162 157 156 148 144 138 134 131 134 140 141 150 136 140 146 149 142 110 54 62 83 82 75 69 67 40 45 59 66 85 95 103 107 111 114 112 114 116 118 116 114 118 116 112 115 102 113 126 120 108 122
239 250 150 174 163 198 224 166 187 238 263 294 40 117 274 291 255 227 221 236 262 291 279 266 258 256 241 240 236 221 209 201 192 195 191 191 187 188 188 186 185 188 171 168 169 164 160 155 151 148 139 141 143 144 142 152 148 155 134 128 121 115 109 126 122 96 83 96 80 61 59 54 48 58 91 92 101 113 118 115 118 116 114 116 117 114 120 122 107 84 92 99 91 80 115 127 139
219 260 131 141 167 183 122 149 186 232 27 290 306 171 281 256 274 348 123 222 267 255 255 259 260 263 258 244 233 223 211 204 192 189 190 189 191 192 182 180 181 172 169 172 170 159 151 148 145 140 144 147 153 155 150 153 152 146 137 133 111 65 103 109 106 97 91 85 91 72 76 83 77 68 70 102 105 116 118 119 116 114 113 116 114 111 111 118 120 124 114 103 106 89 97 121 115
236 127 91 84 80 67 113 102 105 321 43 260 195 181 189 277 187 140 346 184 232 238 243 252 260 270 254 254 248 232 222 207 199 195 183 187 189 186 176 167 171 177 166 158 150 148 149 147 145 145 147 153 155 158 156 157 154 144 142 139 128 125 123 113 109 116 114 117 108 111 107 105 105 94 77 73 91 85 99 101 105 110 115 118 113 118 121 115 113 110 120 123 123 109 102 108 116
135 99 76 27 42 38 29 66 86 36 260 253 190 200 158 279 177 183 157 205 196 226 261 274 274 289 268 251 253 240 211 187 180 173 174 177 175 170 163 176 174 155 158 160 158 157 154 153 151 154 156 152 158 158 159 162 155 158 155 149 146 135 135 133 131 121 116 123 128 129 131 125 113 109 98 76 77 88 89 92 107 107 104 108 113 118 123 121 122 118 118 110 108 116 115 109 100
124 102 124 69 347 10 33 341 40 114 268 312 308 200 181 222 285 271 241 277 239 208 226 251 273 267 262 272 266 235 182 176 166 160 160 160 161 169 169 176 172 167 165 166 165 160 160 160 159 154 156 160 164 161 161 156 150 151 147 152 152 147 147 153 152 150 156 152 149 146 139 124 121 111 109 112 103 102 113 103 99 99 101 108 106 105 108 112 112 109 107 109 109 107 113 110 114
85 91 87 119 247 35 294 25 260 197 235 183 338 136 331 241 246 245 267 258 256 216 221 236 253 271 260 268 264 218 169 164 172 169 165 174 178 175 178 178 171 175 178 172 170 167 165 166 166 160 165 166 167 164 166 161 157 158 160 162 162 157 158 156 156 153 159 155 155 149 153 151 150 139 157 139 149 137 127 116 109 108 102 88 99 98 96 97 100 99 105 103 110 120 127 126 123
133 155 148 110 174 224 263 273 272 306 292 271 30 81 253 311 281 226 241 239 234 228 231 237 243 257 271 282 255 188 186 184 182 177 181 185 184 182 181 179 178 177 177 174 172 171 170 171 172 168 167 167 163 161 162 160 165 163 163 169 167 161 163 160 159 157 163 157 157 159 162 161 162 163 160 161 151 128 102 99 100 91 93 102 104 102 98 89 91 97 95 96 91 83 94 103 110
203 96 161 184 150 158 206 201 225 239 233 278 281 77 233 125 243 262 248 278 291 261 252 252 263 258 277 293 240 192 188 197 187 189 191 188 189 184 183 182 181 179 176 173 174 175 172 173 173 171 162 168 165 167 165 167 163 165 169 173 171 169 163 164 166 162 156 155 161 157 159 159 158 160 155 141 131 116 109 104 104 105 107 103 100 97 89 85 89 93 88 94 86 83 93 101 104
215 169 66 88 223 135 236 210 173 286 336 333 215 213 190 189 274 293 254 281 283 260 275 288 269 259 267 272 234 204 201 199 197 199 196 195 190 187 185 185 182 178 178 175 175 175 176 178 176 174 170 170 173 172 177 173 170 167 171 170 176 171 165 156 149 154 158 157 157 160 158 158 152 141 129 130 124 123 123 117 110 108 107 101 96 99 98 99 106 105 98 95 89 67 97 89 90
207 110 204 208 164 114 84 47 45 76 47 258 126 283 277 300 274 237 251 251 258 290 288 254 254 270 293 269 252 209 208 205 202 203 195 191 189 193 190 184 181 180 181 183 182 180 179 173 175 174 175 174 175 180 175 174 169 165 174 175 168 166 165 166 166 164 160 157 153 154 152 149 137 137 135 132 127 120 124 125 121 116 108 105 100 94 99 102 102 98 101 98 94 90 92 90 90
100 192 230 149 128 104 142 227 1 68 211 273 116 249 293 52 282 1 57 226 256 258 257 251 263 247 254 251 256 227 219 218 214 208 200 193 192 191 191 189 187 186 184 184 183 179 180 177 176 173 172 175 182 178 175 171 166 169 170 175 176 175 171 171 163 160 155 149 149 139 132 141 151 142 135 131 125 128 127 129 123 118 113 108 110 107 106 108 103 94 100 98 112 114 101 90 94
147 196 193 129 232 241 297 92 259 229 251 275 298 261 260 192 251 53 302 225 248 244 248 276 271 253 241 262 252 238 228 220 207 202 195 191 191 194 193 190 189 190 188 186 179 175 178 178 179 177 177 181 177 172 171 169 171 167 171 176 174 172 173 161 153 151 152 155 153 150 147 141 127 135 133 133 133 133 134 127 125 122 119 117 113 114 116 111 115 114 112 114 121 117 109 107 125
45 72 122 27 98 162 134 194 180 128 263 35 289 42 275 162 222 188 226 209 215 235 261 247 247 253 269 245 235 228 220 214 208 203 199 194 194 194 191 189 187 187 185 184 179 176 181 178 177 179 178 172 169 170 165 165 166 158 165 162 167 168 160 158 158 155 161 161 153 147 145 144 146 134 132 132 135 138 138 132 131 128 124 121 119 120 126 125 123 122 127 120 126 116 114 124 129
154 120 194 174 39 243 110 27 138 179 179 185 274 303 263 242 197 180 209 203 211 198 219 238 245 239 228 223 218 223 220 213 208 200 192 191 192 190 192 193 190 185 183 174 178 181 178 174 180 178 170 165 172 172 167 171 162 161 161 170 168 162 162 152 151 160 155 155 147 143 145 140 130 139 138 139 140 140 138 138 136 136 134 134 133 136 141 135 129 125 117 117 118 121 124 128 123
175 179 194 183 141 151 158 248 63 129 147 236 170 248 269 254 171 199 191 215 195 222 205 258 263 255 248 237 229 217 218 217 207 203 191 188 187 186 186 185 179 177 181 178 177 176 176 178 180 173 171 175 170 172 176 163 165 162 167 168 168 161 153 151 155 157 157 155 150 147 143 140 143 140 144 142 142 141 140 142 140 135 134 135 140 142 146 141 137 129 120 124 133 137 133 132 126